Weather History for KOLU - January, 2014

Change the Weather History Date:

Friday, January 3, 2014

  Actual Average Record
Temperature  
Mean Temperature 22 °F -  
Max Temperature 37 °F 29 °F 52 °F (1955)
Min Temperature 8 °F 9 °F -11 °F (1968)
Degree Days  
Heating Degree Days 42    
Moisture  
Dew Point 15 °F    
Average Humidity 72    
Maximum Humidity 79    
Minimum Humidity 64    
Precipitation  
Precipitation 0.02 in - - ()
Sea Level Pressure  
Sea Level Pressure 29.82 in    
Wind  
Wind Speed 13 mph (SSW)    
Max Wind Speed 23 mph    
Max Gust Speed 31 mph    
Visibility 10 miles    
Events      
Averages and records for this station are not official NWS values.
T = Trace of Precipitation, MM = Missing Value Source: NWS Daily Summary

Daily Weather History Graph

Daily Weather History Graph

Search for Another Location

Airport or City:

Trip Planner

Search our weather history database for the weather conditions in past years. The results will help you decide how hot, cold, wet, or windy it might be!

Date:

Astronomy

Jan. 03, 2014 Rise Set
Actual Time 7:55 AM CST 5:12 PM CST
Civil Twilight 7:24 AM CST 5:43 PM CST
Nautical Twilight 6:49 AM CST 6:18 PM CST
Astronomical Twilight 6:16 AM CST 6:51 PM CST
Moon 9:20 AM CST (1/3) 8:25 PM CST (1/3)
Length of Visible Light 10h 18m
Length of Day
9h 16m
Waxing Crescent, 8% of the Moon is Illuminated
Jan 3
Waxing Crescent
Jan 7
First Quarter
Jan 15
Full
Jan 23
Last Quarter
Jan 30
New

Hourly Weather History & Observations

Time (CST) Temp. Windchill Dew Point Humidity Pressure Visibility Wind Dir Wind Speed Gust Speed Precip Events Conditions
12:15 AM 8.6 °F -5.5 °F 1.4 °F 73% 30.27 in 10.0 mi South 10.4 mph - N/A   Overcast
12:35 AM 8.6 °F -4.7 °F 1.4 °F 73% 30.26 in 10.0 mi South 9.2 mph - N/A   Overcast
12:55 AM 10.4 °F -4.1 °F 3.2 °F 73% 30.26 in 10.0 mi South 11.5 mph - N/A   Overcast
1:15 AM 10.4 °F -4.8 °F 3.2 °F 73% 30.24 in 10.0 mi South 12.7 mph 18.4 mph N/A   Overcast
1:35 AM 10.4 °F -4.8 °F 3.2 °F 73% 30.23 in 10.0 mi South 12.7 mph - N/A   Overcast
1:55 AM 10.4 °F -6.6 °F 3.2 °F 73% 30.21 in 9.0 mi South 16.1 mph - N/A   Overcast
2:15 AM 10.4 °F -6.0 °F 3.2 °F 73% 30.20 in 7.0 mi South 15.0 mph - N/A   Overcast
2:35 AM 10.4 °F -4.1 °F 3.2 °F 73% 30.20 in 5.0 mi South 11.5 mph - N/A   Overcast
2:55 AM 10.4 °F -4.8 °F 3.2 °F 73% 30.19 in 5.0 mi SSE 12.7 mph - N/A   Overcast
3:15 AM 8.6 °F -7.7 °F 3.2 °F 79% 30.18 in 8.0 mi South 13.8 mph - N/A   Partly Cloudy
3:35 AM 8.6 °F -6.3 °F 1.4 °F 73% 30.17 in 10.0 mi South 11.5 mph - N/A   Clear
3:55 AM 8.6 °F -6.3 °F 1.4 °F 73% 30.15 in 10.0 mi SSE 11.5 mph - N/A   Clear
4:15 AM 8.6 °F -5.5 °F 1.4 °F 73% 30.13 in 10.0 mi SSE 10.4 mph - N/A   Clear
4:35 AM 8.6 °F -5.5 °F 1.4 °F 73% 30.11 in 10.0 mi SSE 10.4 mph - N/A   Clear
4:55 AM 8.6 °F -3.7 °F 1.4 °F 73% 30.10 in 10.0 mi SSE 8.1 mph - N/A   Clear
5:15 AM 8.6 °F -6.3 °F 1.4 °F 73% 30.09 in 10.0 mi South 11.5 mph - N/A   Clear
5:35 AM 8.6 °F -6.3 °F 1.4 °F 73% 30.07 in 10.0 mi South 11.5 mph - N/A   Clear
5:55 AM 8.6 °F -7.0 °F 1.4 °F 73% 30.05 in 10.0 mi South 12.7 mph - N/A   Clear
6:15 AM 8.6 °F -7.7 °F 1.4 °F 73% 30.03 in 10.0 mi South 13.8 mph 19.6 mph N/A   Clear
6:35 AM 8.6 °F -5.5 °F 1.4 °F 73% 30.01 in 10.0 mi South 10.4 mph - N/A   Clear
6:55 AM 8.6 °F -4.7 °F 1.4 °F 73% 30.01 in 10.0 mi South 9.2 mph - N/A   Clear
7:15 AM 8.6 °F -6.3 °F 3.2 °F 79% 29.99 in 10.0 mi South 11.5 mph 18.4 mph N/A   Clear
7:35 AM 8.6 °F -7.0 °F 3.2 °F 79% 29.97 in 10.0 mi South 12.7 mph - N/A   Clear
7:55 AM 10.4 °F -4.1 °F 3.2 °F 73% 29.96 in 10.0 mi South 11.5 mph - N/A   Clear
8:15 AM 10.4 °F -5.4 °F 5.0 °F 79% 29.95 in 8.0 mi South 13.8 mph 23.0 mph N/A   Clear
8:35 AM 10.4 °F -4.8 °F 5.0 °F 79% 29.95 in 8.0 mi SSW 12.7 mph - N/A   Clear
8:55 AM 10.4 °F -3.3 °F 5.0 °F 79% 29.93 in 4.0 mi South 10.4 mph - N/A   Clear
9:15 AM 12.2 °F -2.5 °F 6.8 °F 79% 29.93 in 9.0 mi South 12.7 mph 16.1 mph N/A   Clear
9:35 AM 14.0 °F -1.4 °F 8.6 °F 79% 29.91 in 10.0 mi South 15.0 mph - N/A   Clear
9:55 AM 15.8 °F -0.2 °F 10.4 °F 79% 29.89 in 10.0 mi South 17.3 mph - N/A   Clear
10:15 AM 17.6 °F 3.2 °F 10.4 °F 73% 29.88 in 10.0 mi South 15.0 mph - N/A   Clear
10:35 AM 21.2 °F 7.8 °F 14.0 °F 74% 29.87 in 10.0 mi SSW 15.0 mph 20.7 mph N/A   Clear
10:55 AM 23.0 °F 9.6 °F 15.8 °F 74% 29.84 in 10.0 mi South 16.1 mph 26.5 mph N/A   Clear
11:15 AM 24.8 °F 11.1 °F 15.8 °F 69% 29.84 in 10.0 mi SSW 18.4 mph 25.3 mph N/A   Clear
11:35 AM 26.6 °F 12.4 °F 17.6 °F 69% 29.81 in 10.0 mi SSW 21.9 mph 26.5 mph N/A   Clear
11:55 AM 26.6 °F 14.3 °F 19.4 °F 74% 29.79 in 10.0 mi SSW 16.1 mph 21.9 mph N/A   Clear
12:15 PM 28.4 °F 14.4 °F 19.4 °F 69% 29.75 in 10.0 mi SSW 23.0 mph 27.6 mph N/A   Clear
12:35 PM 30.2 °F 16.8 °F 21.2 °F 69% 29.73 in 10.0 mi SSW 23.0 mph 31.1 mph N/A   Clear
12:55 PM 30.2 °F 18.1 °F 21.2 °F 69% 29.71 in 10.0 mi SSW 18.4 mph 27.6 mph N/A   Clear
1:15 PM 32.0 °F 21.2 °F 21.2 °F 64% 29.70 in 10.0 mi SSW 16.1 mph 25.3 mph N/A   Clear
1:35 PM 32.0 °F 19.8 °F 21.2 °F 64% 29.68 in 10.0 mi South 20.7 mph 26.5 mph N/A   Clear
1:55 PM 33.8 °F 22.5 °F 23.0 °F 65% 29.66 in 10.0 mi South 19.6 mph 25.3 mph N/A   Clear
2:15 PM 33.8 °F 22.2 °F 24.8 °F 70% 29.64 in 10.0 mi South 20.7 mph 26.5 mph N/A   Clear
2:35 PM 33.8 °F 22.8 °F 24.8 °F 70% 29.63 in 10.0 mi SSW 18.4 mph 27.6 mph N/A   Clear
2:55 PM 35.6 °F 24.8 °F 24.8 °F 65% 29.62 in 10.0 mi SSW 19.6 mph 26.5 mph N/A   Clear
3:15 PM 35.6 °F 25.2 °F 24.8 °F 65% 29.61 in 10.0 mi SSW 18.4 mph 23.0 mph N/A   Clear
3:35 PM 35.6 °F 25.2 °F 24.8 °F 65% 29.59 in 10.0 mi South 18.4 mph 25.3 mph N/A   Clear
3:55 PM 35.6 °F 25.5 °F 26.6 °F 70% 29.59 in 10.0 mi South 17.3 mph - 0.01 in   Clear
4:15 PM 35.6 °F 25.9 °F 26.6 °F 70% 29.58 in 10.0 mi South 16.1 mph 23.0 mph 0.01 in   Clear
4:35 PM 37.4 °F 28.5 °F 26.6 °F 65% 29.57 in 10.0 mi South 15.0 mph 20.7 mph 0.01 in   Clear
4:55 PM 35.6 °F 26.2 °F 26.6 °F 70% 29.57 in 10.0 mi SSW 15.0 mph - 0.01 in   Clear
5:15 PM 35.6 °F 28.0 °F 26.6 °F 70% 29.57 in 10.0 mi South 10.4 mph 16.1 mph N/A   Clear
5:35 PM 35.6 °F 27.5 °F 26.6 °F 70% 29.56 in 10.0 mi SSW 11.5 mph - N/A   Clear
5:55 PM 35.6 °F 27.5 °F 26.6 °F 70% 29.57 in 10.0 mi South 11.5 mph - N/A   Clear
6:15 PM 35.6 °F 27.5 °F 26.6 °F 70% 29.57 in 10.0 mi South 11.5 mph - N/A   Clear
6:35 PM 33.8 °F 24.8 °F 26.6 °F 75% 29.56 in 10.0 mi SSW 12.7 mph - N/A   Clear
6:55 PM 35.6 °F 26.6 °F 26.6 °F 70% 29.55 in 10.0 mi South 13.8 mph - N/A   Clear
7:15 PM 35.6 °F 27.1 °F 26.6 °F 70% 29.54 in 10.0 mi SSW 12.7 mph 16.1 mph N/A   Clear
7:35 PM 35.6 °F 26.6 °F 26.6 °F 70% 29.54 in 10.0 mi South 13.8 mph 19.6 mph N/A   Clear
7:55 PM 35.6 °F 26.6 °F 26.6 °F 70% 29.54 in 10.0 mi SSW 13.8 mph - N/A   Clear
8:15 PM 35.6 °F 27.5 °F 26.6 °F 70% 29.54 in 10.0 mi SSW 11.5 mph - N/A   Clear
8:35 PM 35.6 °F 28.0 °F 26.6 °F 70% 29.54 in 10.0 mi SSW 10.4 mph - N/A   Clear
8:55 PM 35.6 °F 28.6 °F 26.6 °F 70% 29.54 in 10.0 mi SSW 9.2 mph - N/A   Clear
9:15 PM 35.6 °F 28.0 °F 26.6 °F 70% 29.56 in 10.0 mi WSW 10.4 mph - N/A   Clear
9:35 PM 35.6 °F 27.5 °F 26.6 °F 70% 29.57 in 10.0 mi SW 11.5 mph - N/A   Clear
9:55 PM 35.6 °F 28.6 °F 26.6 °F 70% 29.58 in 10.0 mi WSW 9.2 mph - N/A   Clear
10:15 PM 33.8 °F 28.6 °F 26.6 °F 75% 29.58 in 10.0 mi WSW 5.8 mph - N/A   Clear
10:35 PM 33.8 °F 29.6 °F 24.8 °F 70% 29.59 in 10.0 mi WSW 4.6 mph - N/A   Clear
10:55 PM 33.8 °F 29.6 °F 24.8 °F 70% 29.59 in 10.0 mi SW 4.6 mph - N/A   Clear
11:15 PM 33.8 °F 27.7 °F 24.8 °F 70% 29.60 in 10.0 mi WSW 6.9 mph - N/A   Clear
11:35 PM 30.2 °F 26.7 °F 23.0 °F 75% 29.59 in 10.0 mi West 3.5 mph - N/A   Clear
11:55 PM 33.8 °F 28.6 °F 26.6 °F 75% 29.60 in 10.0 mi WSW 5.8 mph - N/A   Clear